EA4TN Weather Reports


time (UTC)temp
F
wind
direction
speed
knots
gust
knots
rain 1hr
in
rain 24hr
in
rain mn
in
humidity
%
barometer
mb
20260504022016 55 269 1.7 3.5 0.00 0.03 0.00 73 1012.2
20260504021016 56 251 0.9 2.6 0.00 0.03 0.00 73 1012.3
20260504020016 56 243 1.7 4.3 0.00 0.03 0.00 72 1012.2
20260504015016 56 244 0.9 4.3 0.00 0.03 0.00 72 1012.3
20260504014016 57 261 0.9 3.5 0.00 0.03 0.00 71 1012.5
20260504013016 57 257 1.7 3.5 0.00 0.03 0.00 70 1012.5
20260504012016 58 266 0.9 5.2 0.00 0.03 0.00 69 1012.6
20260504011016 58 269 1.7 4.3 0.00 0.03 0.00 69 1012.6
20260504010037 58 243 0.9 2.6 0.00 0.03 0.00 68 1012.6
20260504005016 58 261 0.9 1.7 0.00 0.03 0.00 68 1012.6
20260504004016 58 262 0.9 2.6 0.00 0.03 0.00 67 1012.7
20260504003016 58 264 0.9 1.7 0.00 0.03 0.00 67 1012.7
20260504002016 59 274 0.9 2.6 0.00 0.03 0.00 67 1012.7
20260504001016 59 267 0.9 3.5 0.00 0.03 0.00 66 1012.8
20260504000017 59 259 1.7 3.5 0.00 0.03 0.00 66 1012.8
20260503235016 59 234 0.9 3.5 0.00 0.03 0.03 66 1012.9
20260503234016 60 266 1.7 3.5 0.00 0.03 0.03 65 1013.1
20260503233016 60 255 1.7 3.5 0.00 0.03 0.03 65 1013.2
20260503232016 60 240 1.7 3.5 0.00 0.03 0.03 65 1013.2
20260503231016 60 239 0.9 3.5 0.00 0.03 0.03 64 1013.1
20260503230016 60 249 1.7 3.5 0.00 0.03 0.03 64 1013.1
20260503225036 60 246 1.7 3.5 0.00 0.03 0.03 64 1013.1
20260503224036 60 252 0.9 2.6 0.00 0.06 0.03 64 1013.0
20260503223016 60 244 0.9 2.6 0.00 0.06 0.03 65 1013.0
20260503222016 60 229 1.7 2.6 0.00 0.06 0.03 64 1013.1
20260503221016 60 240 0.9 3.5 0.00 0.06 0.03 64 1012.9
20260503220016 61 261 1.7 3.5 0.00 0.06 0.03 63 1013.1
20260503215016 61 265 0.9 2.6 0.00 0.06 0.03 63 1013.1
20260503214016 61 253 0.9 2.6 0.00 0.06 0.03 63 1012.9
20260503213016 62 265 1.7 2.6 0.00 0.06 0.03 61 1012.8
20260503212016 62 258 1.7 4.3 0.00 0.06 0.03 58 1012.8
20260503211016 62 265 0.9 2.6 0.00 0.06 0.03 58 1012.7
20260503210036 62 263 1.7 4.3 0.00 0.06 0.03 59 1012.5
20260503205016 62 265 1.7 3.5 0.00 0.06 0.03 59 1012.4
20260503204016 63 268 2.6 4.3 0.00 0.06 0.03 60 1012.4
20260503203016 63 281 0.9 3.5 0.00 0.06 0.03 60 1012.2
20260503202016 63 277 1.7 5.2 0.00 0.06 0.03 60 1012.1
20260503201016 63 290 1.7 4.3 0.00 0.06 0.03 61 1011.8
20260503200016 63 272 1.7 4.3 0.00 0.06 0.03 61 1011.7
20260503195016 63 258 1.7 3.5 0.00 0.06 0.03 61 1011.6
20260503194016 64 265 1.7 4.3 0.00 0.06 0.03 60 1011.5
20260503193036 64 277 2.6 6.1 0.00 0.06 0.03 59 1011.3
20260503192036 64 281 2.6 7.0 0.00 0.06 0.03 58 1011.4
20260503191016 64 268 2.6 4.3 0.00 0.06 0.03 56 1011.2
20260503190016 65 265 4.3 7.0 0.00 0.06 0.03 56 1011.1
20260503185016 65 270 2.6 7.0 0.00 0.06 0.03 57 1011.0
20260503184036 65 262 4.3 8.7 0.00 0.06 0.03 55 1011.1
20260503183016 66 268 4.3 7.0 0.00 0.06 0.03 54 1011.1
20260503182016 66 275 5.2 9.6 0.00 0.06 0.03 55 1011.0
20260503181016 66 273 5.2 12.2 0.00 0.06 0.03 55 1011.1
20260503180016 66 271 5.2 10.4 0.00 0.06 0.03 54 1011.0
20260503175016 67 269 6.1 11.3 0.00 0.06 0.03 54 1011.1
20260503174036 67 280 4.3 11.3 0.00 0.06 0.03 54 1011.0
20260503173016 67 276 5.2 11.3 0.00 0.06 0.03 53 1011.0
20260503172016 67 271 5.2 9.6 0.00 0.06 0.03 53 1010.9
20260503171036 67 273 5.2 10.4 0.00 0.06 0.03 54 1011.0
20260503131016 69 272 6.1 13.0 0.00 0.06 0.03 53 1012.2
20260503081016 60 259 0.9 4.3 0.00 0.06 0.03 91 1014.2
20260503072016 57 264 1.7 3.5 0.00 0.09 0.03 93 1013.7
20260503071017 57 262 0.9 2.6 0.02 0.09 0.03 93 1013.8
20260503055036 57 197 0.9 1.7 0.00 0.06 0.00 90 1013.2
20260503054016 57 111 0.0 1.7 0.00 0.06 0.00 90 1013.2
20260503053016 56 0.0 0.9 0.00 0.06 0.00 90 1013.2
20260503052017 56 0.0 0.0 0.00 0.06 0.00 89 1013.3
20260503051036 57 245 0.0 1.7 0.00 0.06 0.00 89 1013.4
20260503050017 56 248 0.9 2.6 0.00 0.06 0.00 89 1013.4
20260503045017 56 0.0 1.7 0.00 0.06 0.00 89 1013.3
20260503044036 57 217 0.9 1.7 0.00 0.06 0.00 88 1013.3
20260503043017 57 113 0.9 3.5 0.00 0.06 0.00 88 1013.2
20260503042017 57 116 1.7 4.3 0.00 0.06 0.00 88 1013.4
20260503041017 57 0.0 0.0 0.00 0.06 0.00 88 1013.7
20260503040017 57 124 0.0 1.7 0.00 0.06 0.00 87 1014.0
20260503035036 57 110 0.9 3.5 0.00 0.06 0.00 88 1014.1
20260503034016 56 61 0.9 2.6 0.00 0.06 0.00 89 1014.1
20260503033017 56 61 0.0 0.9 0.00 0.06 0.00 90 1014.2
20260503032017 57 0.0 0.0 0.00 0.06 0.00 90 1014.3
20260503031016 57 0.0 0.9 0.00 0.06 0.00 90 1014.3
20260503030037 57 61 0.9 1.7 0.00 0.06 0.00 90 1014.4
20260503025016 57 61 0.9 1.7 0.00 0.06 0.00 90 1014.4
20260503024057 57 61 0.9 2.6 0.00 0.06 0.00 90 1014.3
20260503023017 57 61 0.9 1.7 0.00 0.06 0.00 90 1014.3